Weather History for Dickinson, ND

Change the Weather History Date:

Tuesday, February 26, 2013

  Actual Average Record
Temperature  
Mean Temperature 31 °F 23 °F  
Max Temperature 43 °F 34 °F 58 °F (1974)
Min Temperature 19 °F 13 °F -24 °F (1962)
Degree Days  
Heating Degree Days 34 42  
Month to date heating degree days 1024 1165  
Since 1 July heating degree days 5904 6212  
Cooling Degree Days 0 0  
Month to date cooling degree days 0 0  
Year to date cooling degree days 0 0  
Moisture  
Dew Point 24 °F    
Average Humidity 71    
Maximum Humidity 88    
Minimum Humidity 53    
Precipitation  
Precipitation 0.00 in 0.02 in 0.96 in (1958)
Month to date precipitation T 0.30  
Year to date precipitation 0.08 0.60  
Sea Level Pressure  
Sea Level Pressure 30.00 in    
Wind  
Wind Speed 13 mph (WNW)    
Max Wind Speed 22 mph    
Max Gust Speed 26 mph    
Visibility 10 miles    
Events      
T = Trace of Precipitation, MM = Missing Value Source: NWS Daily Summary

Daily Weather History Graph

Daily Weather History Graph

Search for Another Location

Airport:

Trip Planner

Search our weather history database for the weather conditions in past years. The results will help you decide how hot, cold, wet, or windy it might be!

Date:

Astronomy

Feb. 26, 2013 Rise Set
Actual Time 6:35 AM MST 5:32 PM MST
Civil Twilight 6:05 AM MST 6:03 PM MST
Nautical Twilight 5:30 AM MST 6:38 PM MST
Astronomical Twilight 4:55 AM MST 7:13 PM MST
Moon 7:00 PM MST (2/26) 6:33 AM MST (2/26)
Length of Visible Light 11h 58m
Length of Day
10h 57m
Full, 99% of the Moon is Illuminated
Feb 26
Full
Mar 4
Last Quarter
Mar 11
New
Mar 19
First Quarter
Mar 27
Full

Hourly Weather History & Observations

Time (MST) Temp. Windchill Dew Point Humidity Pressure Visibility Wind Dir Wind Speed Gust Speed Precip Events Conditions
12:56 AM 26.1 °F 16.8 °F 19.9 °F 78% 29.83 in 10.0 mi South 9.2 mph - N/A   Clear
1:56 AM 26.1 °F 16.2 °F 19.9 °F 78% 29.83 in 10.0 mi South 10.4 mph - N/A   Clear
2:56 AM 23.0 °F 17.0 °F 19.0 °F 85% 29.84 in 10.0 mi SSW 4.6 mph - N/A   Clear
3:56 AM 21.9 °F 17.2 °F 18.0 °F 85% 29.85 in 10.0 mi South 3.5 mph - N/A   Clear
4:56 AM 19.9 °F 13.4 °F 16.0 °F 85% 29.87 in 10.0 mi West 4.6 mph - N/A   Clear
5:56 AM 19.9 °F 13.4 °F 16.0 °F 85% 29.90 in 10.0 mi West 4.6 mph - N/A   Clear
6:56 AM 21.9 °F 14.5 °F 17.1 °F 82% 29.92 in 10.0 mi WNW 5.8 mph - N/A   Clear
7:56 AM 30.0 °F 21.1 °F 23.0 °F 75% 29.93 in 10.0 mi WNW 10.4 mph - N/A   Clear
8:56 AM 35.1 °F 26.9 °F 25.0 °F 67% 29.93 in 10.0 mi WNW 11.5 mph - N/A   Clear
9:56 AM 39.9 °F 31.8 °F 27.0 °F 60% 29.93 in 10.0 mi NW 15.0 mph - N/A   Clear
10:56 AM 42.1 °F 34.5 °F 27.0 °F 55% 29.94 in 10.0 mi NNW 15.0 mph - N/A   Clear
11:56 AM 42.1 °F 34.5 °F 27.0 °F 55% 29.96 in 10.0 mi NNW 15.0 mph - N/A   Mostly Cloudy
12:56 PM 42.1 °F 34.5 °F 28.0 °F 58% 29.98 in 10.0 mi NNW 15.0 mph - N/A   Overcast
1:56 PM 41.0 °F 33.5 °F 28.9 °F 62% 29.99 in 10.0 mi NW 13.8 mph - N/A   Overcast
2:56 PM 36.0 °F 25.3 °F 28.9 °F 76% 30.03 in 10.0 mi NW 19.6 mph - N/A   Overcast
3:30 PM 33.8 °F 22.8 °F 26.6 °F 75% 29.96 in 10.0 mi NW 18.4 mph 25.3 mph N/A   Mostly Cloudy
3:56 PM 33.1 °F 23.0 °F 27.0 °F 78% 30.06 in 10.0 mi NW 15.0 mph - N/A   Overcast
4:56 PM 32.0 °F 20.5 °F 26.1 °F 79% 30.09 in 10.0 mi WNW 18.4 mph - N/A   Overcast
5:56 PM 32.0 °F 20.5 °F 25.0 °F 75% 30.11 in 10.0 mi WNW 18.4 mph 24.2 mph N/A   Overcast
6:25 PM 32.0 °F 21.2 °F 26.6 °F 80% 30.02 in 10.0 mi NW 16.1 mph - N/A   Overcast
6:56 PM 32.0 °F 22.1 °F 26.1 °F 79% 30.12 in 10.0 mi NW 13.8 mph - N/A   Overcast
7:56 PM 30.9 °F 19.8 °F 25.0 °F 79% 30.13 in 10.0 mi NW 16.1 mph - N/A   Overcast
8:56 PM 30.9 °F 19.1 °F 25.0 °F 79% 30.13 in 10.0 mi NW 18.4 mph - N/A   Overcast
9:04 PM 30.2 °F 18.5 °F 24.8 °F 80% 30.05 in 10.0 mi NW 17.3 mph - N/A   Overcast
9:56 PM 30.0 °F 18.7 °F 24.1 °F 79% 30.13 in 10.0 mi NW 16.1 mph 24.2 mph N/A   Overcast
10:46 PM 30.2 °F 19.8 °F 24.8 °F 80% 30.07 in 10.0 mi NW 13.8 mph - N/A   Overcast
10:56 PM 30.0 °F 19.1 °F 23.0 °F 75% 30.13 in 10.0 mi NW 15.0 mph - N/A   Overcast
11:56 PM 30.0 °F 19.1 °F 23.0 °F 75% 30.13 in 10.0 mi NW 15.0 mph - N/A   Overcast